Dallas Addison, TX

7:16 AM CDT on October 15, 2019 (GMT -0500)
Addison

Weather History for KADS - September, 2019

Change the Weather History Date:

Tuesday, September 17, 2019

  Actual Average Record
Temperature  
Mean Temperature 84 °F -  
Max Temperature 91 °F 86 °F 104 °F (1997)
Min Temperature 76 °F 68 °F 59 °F (2008)
Cooling Degree Days 18    
Growing Degree Days 34 (Base 50)    
Moisture  
Dew Point 67 °F    
Average Humidity 60    
Maximum Humidity 74    
Minimum Humidity 38    
Precipitation  
Precipitation 0.00 in - - ()
Sea Level Pressure  
Sea Level Pressure 29.98 in    
Wind  
Wind Speed 6 mph ()    
Max Wind Speed 15 mph    
Max Gust Speed 21 mph    
Visibility 10.4 miles    
Events      
Averages and records for this station are not official NWS values.
T = Trace of Precipitation, MM = Missing Value Source: Averaged Metar Reports

Daily Weather History Graph

Daily Weather History Graph

Search for Another Location

Airport or City:

Astronomy

Sep. 17, 2019 Rise Set
Actual Time 7:12 AM CDT 7:31 PM CDT
Civil Twilight 6:47 AM CDT 7:55 PM CDT
Nautical Twilight 6:18 AM CDT 8:24 PM CDT
Astronomical Twilight 5:49 AM CDT 8:53 PM CDT
Moon 9:44 PM CDT (9/17) 10:09 AM CDT (9/17)
Length of Visible Light 13h 08m
Length of Day
12h 18m
Waning Gibbous, 89% of the Moon is Illuminated
Sep 17
Waning Gibbous
Sep 21
Last Quarter
Sep 28
New
Oct 5
First Quarter
Oct 13
Full

Hourly Weather History & Observations

Time (CDT) Temp. Heat Index Dew Point Humidity Pressure Visibility Wind Dir Wind Speed Gust Speed Precip Events Conditions
12:15 AM 83.3 °F 85.5 °F 66.2 °F 56% 29.99 in 10.0 mi East 4.6 mph - N/A   Clear
12:35 AM 83.3 °F 85.5 °F 66.2 °F 56% 29.98 in 10.0 mi East 4.6 mph - N/A   Clear
12:55 AM 82.6 °F 84.9 °F 66.2 °F 58% 29.98 in 10.0 mi ESE 5.8 mph - N/A   Clear
1:15 AM 82.8 °F 84.5 °F 65.1 °F 55% 29.99 in 10.0 mi SE 9.2 mph - N/A   Clear
1:35 AM 81.1 °F 83.1 °F 65.5 °F 59% 29.99 in 10.0 mi SSE 9.2 mph - N/A   Clear
1:55 AM 80.1 °F 82.1 °F 66.0 °F 62% 29.99 in 10.0 mi SSE 6.9 mph - N/A   Clear
2:15 AM 79.5 °F - 66.2 °F 64% 29.99 in 10.0 mi SSE 5.8 mph - N/A   Clear
2:35 AM 78.6 °F - 65.8 °F 65% 29.99 in 10.0 mi SSE 6.9 mph - N/A   Clear
2:55 AM 79.0 °F - 65.7 °F 64% 29.99 in 10.0 mi South 4.6 mph - N/A   Clear
3:15 AM 78.3 °F - 66.0 °F 66% 29.99 in 10.0 mi SSE 5.8 mph - N/A   Clear
3:35 AM 77.0 °F - 66.0 °F 69% 29.99 in 10.0 mi SSE 6.9 mph - N/A   Clear
3:55 AM 77.7 °F - 66.2 °F 68% 29.99 in 10.0 mi SSE 6.9 mph - N/A   Clear
4:15 AM 77.0 °F - 66.6 °F 70% 29.99 in 10.0 mi SSE 6.9 mph - N/A   Clear
4:35 AM 77.2 °F - 66.7 °F 70% 29.99 in 10.0 mi SSE 5.8 mph - N/A   Clear
5:15 AM 76.5 °F - 67.3 °F 73% 29.99 in 10.0 mi SE 5.8 mph - N/A   Clear
5:35 AM 76.6 °F - 67.5 °F 73% 30.00 in 10.0 mi SE 8.1 mph - N/A   Clear
5:47 AM 77.0 °F - 68.0 °F 74% 29.99 in 10.0 mi ESE 5.8 mph - N/A   Clear
6:47 AM 77.0 °F - 68.0 °F 74% 30.00 in 10.0 mi ESE 4.6 mph - N/A   Clear
7:50 AM 77.0 °F - 68.0 °F 74% 30.01 in 13.0 mi East 4.6 mph - N/A   Clear
8:47 AM 78.8 °F - 68.0 °F 69% 30.01 in 10.0 mi East 5.8 mph - N/A   Clear
9:47 AM 82.4 °F 86.3 °F 69.8 °F 66% 30.02 in 10.0 mi ESE 4.6 mph - N/A   Clear
10:47 AM 86.0 °F 89.4 °F 68.0 °F 55% 30.02 in 10.0 mi East 10.4 mph - N/A   Clear
11:47 AM 87.8 °F 90.4 °F 66.2 °F 49% 30.01 in 13.0 mi ESE 10.4 mph 17.3 mph N/A   Clear
12:47 PM 91.4 °F 93.2 °F 64.4 °F 41% 29.99 in 10.0 mi SE 15.0 mph 20.7 mph N/A   Scattered Clouds
1:47 PM 91.4 °F 92.1 °F 62.6 °F 38% 29.97 in 13.0 mi East 10.4 mph 16.1 mph N/A   Scattered Clouds
2:47 PM 91.4 °F 93.2 °F 64.4 °F 41% 29.95 in 13.0 mi SE 5.8 mph 16.1 mph N/A   Scattered Clouds
3:47 PM 91.4 °F 93.2 °F 64.4 °F 41% 29.93 in 13.0 mi ESE 9.2 mph 20.7 mph N/A   Scattered Clouds
5:47 PM 91.4 °F 93.2 °F 64.4 °F 41% 29.91 in 10.0 mi ESE 12.7 mph 19.6 mph N/A   Mostly Cloudy
6:50 PM 91.4 °F 93.2 °F 64.4 °F 41% 29.90 in 10.0 mi ESE 12.7 mph 19.6 mph N/A   Mostly Cloudy
7:52 PM 86.0 °F 89.4 °F 68.0 °F 55% 29.92 in 10.0 mi ESE 12.7 mph 19.6 mph N/A   Scattered Clouds
8:47 PM 84.2 °F 87.3 °F 68.0 °F 58% 29.94 in 10.0 mi SSE 10.4 mph - N/A   Clear
10:15 PM 82.4 °F 85.8 °F 69.3 °F 64% 29.96 in 10.0 mi SSE 8.1 mph - N/A   Clear
10:35 PM 82.2 °F 85.5 °F 68.9 °F 64% 29.96 in 10.0 mi SSE 9.2 mph - N/A   Clear
10:55 PM 81.1 °F 84.2 °F 68.7 °F 66% 29.96 in 10.0 mi SSE 5.8 mph - N/A   Clear
11:15 PM 81.5 °F 84.4 °F 68.4 °F 64% 29.96 in 10.0 mi SSE 5.8 mph - N/A   Clear
11:35 PM 80.8 °F 83.6 °F 68.4 °F 66% 29.96 in 10.0 mi SSE 4.6 mph - N/A   Clear
11:55 PM 80.8 °F 83.6 °F 68.5 °F 66% 29.95 in 10.0 mi SSE 6.9 mph - N/A   Clear